Theta_e
308 306 306 306 305 303 300 293 281 296 294 283 280 279 284 291 290 292 289 289 288 286 289 287 285 284 289 295 293 287 290 287 280 282 289 292 290 289 289 283 279 279 278 279
307 306 305 305 305 304 298 290 289 296 292 278 279 283 285 288 288 288 288 286 290 292 288 283 286 288 294 295 292 290 290 283 277 276 284 291 284 288 289 288 286 283 279 280
306 306 305 305 304 303 296 287 282 285 286 284 281 283 282 284 290 289 289 286 290 289 286 288 286 287 291 295 294 298 295 287 282 278 278 283 281 286 289 288 282 280 282 285
306 305 304 304 303 303 291 285 281 288 278 280 281 281 283 283 283 289 288 286 289 287 282 283 285 289 291 293 295 295 292 283 285 286 287 287 286 285 286 285 286 281 284 285
305 304 304 304 303 301 288 282 282 284 281 283 282 282 281 283 285 286 284 284 288 286 283 284 282 287 287 288 292 290 291 283 285 283 287 286 284 286 286 286 286 286 287 287
304 303 303 303 303 298 285 286 285 287 283 281 279 280 284 283 287 287 289 288 286 284 287 292 291 291 291 290 289 288 287 285 283 280 286 285 280 286 286 288 290 288 283 289
303 303 302 301 301 301 294 292 289 287 279 281 281 284 285 285 286 285 288 289 287 290 295 294 292 293 293 293 292 292 287 286 285 279 277 273 290 295 293 291 295 294 293 295
303 302 302 302 301 302 298 295 292 285 279 282 283 285 284 285 288 287 287 290 292 294 291 286 285 285 289 290 293 292 292 285 282 277 272 282 292 290 289 287 289 298 297 298
303 302 302 301 301 302 297 296 293 292 282 281 286 283 285 284 284 286 289 294 294 294 290 286 280 280 284 283 285 292 290 288 283 277 274 273 285 289 291 292 286 295 296 296
302 301 301 301 301 302 300 294 293 292 286 285 286 285 283 288 288 285 288 289 289 295 287 283 280 281 287 281 282 282 282 280 281 281 279 284 287 288 292 286 284 295 295 296
302 302 301 300 301 302 301 292 292 292 289 289 290 290 286 287 288 284 289 286 291 289 284 285 285 282 285 284 286 282 281 278 275 280 278 275 289 288 286 285 292 293 295 296
302 301 301 301 301 302 302 293 295 298 291 289 291 293 295 294 293 289 290 289 289 290 285 287 286 283 284 284 279 287 281 283 280 281 282 288 288 289 294 294 292 293 294 296
302 301 301 300 301 301 301 296 297 296 292 291 286 288 295 298 296 298 287 292 295 294 295 289 287 283 287 283 283 284 287 288 284 285 287 286 289 293 295 296 294 294 295 295
301 301 301 300 300 301 301 296 297 295 292 285 287 295 294 299 300 298 297 296 298 296 294 290 287 285 291 286 286 284 285 285 284 285 288 289 290 293 294 294 296 296 295 295
301 301 302 302 301 300 299 294 295 298 293 288 289 293 294 296 299 302 298 296 295 294 291 290 288 291 290 290 288 284 286 284 282 282 288 289 290 294 295 294 293 295 294 293
301 301 302 301 300 300 294 289 298 299 298 291 286 289 292 294 298 303 303 302 300 297 294 294 294 293 290 282 281 286 289 292 292 289 294 294 294 295 296 294 294 294 294 294
301 300 300 300 300 298 291 287 296 301 300 292 288 284 290 294 299 297 297 300 299 297 296 294 294 290 288 287 282 286 291 293 294 295 294 292 294 292 295 295 295 295 294 294
301 301 301 301 301 301 296 297 302 302 294 294 287 285 287 295 295 292 296 293 293 294 295 296 292 292 290 285 288 291 293 294 294 295 296 295 296 296 295 296 295 293 292 293
301 301 301 299 296 292 295 307 305 301 295 289 287 283 280 293 294 298 298 298 292 294 293 292 291 288 283 288 291 291 293 293 294 296 296 296 295 295 295 295 295 292 292 292
301 298 294 289 292 303 305 298 294 294 294 293 288 287 283 290 291 295 294 296 293 288 292 295 288 287 291 294 294 294 295 296 297 293 293 294 294 294 294 293 294 293 292 292
290 288 290 292 298 293 294 290 290 293 290 292 291 287 285 292 288 292 296 292 293 286 290 289 286 285 290 296 295 295 296 297 297 297 297 296 295 294 293 292 292 292 291 290
290 289 291 290 290 291 289 287 288 290 288 289 287 289 289 291 297 295 296 292 291 287 294 289 285 290 295 295 295 296 297 297 297 297 296 296 295 293 291 290 290 290 291 291
296 293 288 286 286 284 284 281 282 287 290 290 290 289 290 292 295 295 294 290 288 295 288 286 288 293 296 295 295 297 298 299 298 294 294 294 293 293 291 290 290 290 289 289
288 288 283 284 282 285 284 284 285 289 289 290 289 288 288 291 291 293 289 291 293 287 284 286 291 294 295 293 294 297 296 295 292 291 292 292 292 291 291 291 291 290 289 289
285 287 280 282 286 287 291 291 289 291 292 291 289 288 289 289 289 291 289 288 286 287 285 288 293 296 295 292 292 292 292 291 290 291 291 291 292 291 290 290 290 290 290 289
286 285 284 285 285 285 287 288 289 292 291 290 289 287 286 287 287 287 287 286 284 286 290 293 295 295 294 292 291 291 291 291 291 291 292 291 291 290 290 291 291 291 290 289
286 283 286 285 284 284 286 288 289 291 291 287 288 286 286 290 286 287 289 286 289 292 293 295 297 295 292 293 292 292 291 290 290 290 291 290 291 291 290 289 290 291 290 290
Wind_Speed
15 17 19 21 23 26 8 4 4 7 8 7 3 2 6 9 5 7 6 4 4 3 4 7 6 7 5 7 2 6 4 5 7 10 13 5 3 4 7 5 3 4 4 10
13 15 17 20 22 20 5 6 4 5 5 5 3 6 4 4 6 9 5 6 4 5 4 8 9 8 6 8 7 4 3 4 6 10 4 4 3 3 5 3 2 6 5 5
11 13 15 18 21 22 2 3 5 5 6 1 1 6 3 7 7 10 8 11 11 5 9 9 8 11 9 6 10 16 12 6 8 10 10 2 10 12 9 7 5 3 11 15
9 12 15 17 20 22 3 4 1 1 6 4 5 4 4 11 10 4 6 6 7 9 9 19 6 6 8 11 21 8 3 6 8 14 18 19 22 24 20 20 17 14 22 20
8 10 12 14 17 16 5 3 4 4 4 5 5 3 3 11 10 5 10 8 16 19 14 18 27 16 18 7 4 1 2 5 4 15 18 18 20 22 23 25 25 21 22 26
6 7 10 11 13 9 4 2 2 1 4 5 3 4 7 13 14 9 8 12 20 21 18 16 25 24 19 13 5 2 3 3 3 8 5 12 12 14 20 19 15 14 19 26
4 6 8 9 10 6 2 1 1 2 5 2 4 10 15 11 15 17 23 17 14 10 20 25 12 6 6 7 8 9 5 3 3 7 8 4 1 13 17 16 12 17 20 15
3 5 6 7 7 6 0 1 0 1 5 4 12 6 11 11 12 15 17 20 14 16 14 6 7 5 1 2 3 3 7 1 4 3 3 10 2 14 11 8 11 5 3 3
4 5 6 6 7 8 1 2 2 1 3 4 4 9 7 9 7 7 5 9 9 6 3 3 4 4 5 5 10 3 1 1 2 3 4 5 10 26 29 20 5 11 4 4
5 4 6 7 7 9 3 1 2 1 4 5 2 4 4 5 4 6 8 8 7 2 3 2 2 3 6 5 7 7 5 3 3 4 5 6 21 32 28 3 9 10 8 5
6 5 7 7 8 9 3 3 4 3 4 9 7 3 5 6 4 4 6 8 0 3 4 3 3 2 3 4 4 6 5 6 3 4 4 8 24 20 10 5 10 12 11 10
8 6 7 7 8 10 7 2 2 3 4 8 5 15 21 21 21 5 3 4 5 3 3 2 3 3 3 5 4 3 2 3 4 3 3 8 13 13 7 7 11 15 15 15
8 6 8 7 7 9 6 2 2 2 4 8 3 7 7 8 15 13 4 4 4 3 1 2 2 3 2 4 3 5 3 4 3 6 2 14 15 15 13 14 16 16 19 19
8 8 10 8 8 9 8 2 2 0 3 4 9 3 7 6 7 14 17 10 2 0 0 1 2 2 0 3 3 3 3 8 8 4 6 11 13 17 12 15 16 16 22 22
10 9 10 9 9 10 7 3 5 7 2 4 8 14 5 8 6 6 14 11 5 2 2 2 1 1 3 1 1 3 5 5 4 3 10 4 8 14 14 17 18 18 21 22
11 10 9 7 8 8 2 3 2 3 4 3 5 5 6 7 8 7 1 4 4 2 2 1 1 1 2 2 2 2 8 7 5 4 8 8 9 14 15 18 17 19 20 19
11 9 9 8 7 3 3 4 1 7 3 2 5 6 6 6 4 3 2 2 0 1 1 2 1 3 3 2 3 9 9 11 5 4 4 7 13 8 12 16 16 21 18 17
10 9 9 8 7 7 5 4 12 7 2 2 3 7 6 2 3 3 1 3 2 3 2 2 3 2 2 2 6 6 7 8 8 9 9 8 10 12 13 13 13 19 16 15
9 9 9 1 3 3 4 3 6 4 2 2 2 3 5 4 1 2 3 1 2 2 2 2 2 3 3 4 7 6 8 6 7 9 9 10 12 13 13 14 14 17 15 14
9 3 3 2 4 5 1 1 2 3 3 2 4 2 5 1 2 1 1 1 1 2 1 2 3 2 5 7 2 2 5 7 6 9 9 9 10 11 12 13 11 12 12 12
2 4 4 2 6 3 2 2 2 3 3 4 5 5 4 2 2 2 1 2 2 1 1 2 2 3 4 6 7 5 3 5 9 8 6 7 9 10 11 11 11 10 10 10
4 4 2 2 1 2 2 4 2 4 4 3 4 5 6 4 3 1 2 1 2 1 2 2 2 3 2 7 6 7 3 6 6 6 7 6 9 10 10 8 9 9 8 9
2 1 1 2 2 3 6 6 4 3 4 3 1 4 2 3 2 1 0 2 2 1 2 2 0 4 2 6 6 7 4 3 3 7 8 10 9 9 10 10 8 9 9 7
3 5 6 6 4 5 6 5 4 4 3 2 2 3 2 2 1 2 2 1 2 1 1 2 3 2 5 5 5 7 4 1 5 7 7 8 9 8 8 8 8 9 9 6
4 4 6 6 4 3 3 2 2 2 2 1 2 3 1 3 2 2 1 1 1 2 3 4 4 5 6 6 4 5 5 6 6 5 6 7 7 7 7 6 6 8 8 8
3 3 2 3 1 2 1 2 3 2 1 2 2 2 2 3 2 1 2 1 2 3 2 3 5 5 7 6 6 6 5 6 6 6 6 6 7 7 7 6 7 7 8 8
4 4 3 3 1 4 3 2 3 2 2 0 1 2 3 3 2 1 1 2 2 1 1 3 4 7 7 6 6 6 6 6 6 5 5 5 6 8 8 7 5 6 6 6
Wind_Direction
331 336 343 345 344 343 2 2 350 310 351 51 33 18 315 309 301 357 285 311 271 279 295 276 291 245 209 203 179 289 262 273 275 242 245 236 262 279 195 240 223 225 199 259
329 337 345 346 343 355 315 340 291 321 44 66 342 289 282 271 327 332 328 303 258 299 301 314 270 259 283 296 298 246 181 251 300 322 346 94 197 223 207 230 269 206 222 262
334 342 347 348 342 348 23 24 350 334 33 61 176 329 311 331 315 294 350 284 277 281 300 286 276 270 291 284 234 237 241 213 210 251 233 197 275 268 260 232 221 262 244 277
334 347 350 351 343 346 83 22 348 352 320 336 326 284 325 329 340 295 308 296 249 314 298 302 253 260 274 284 276 270 202 275 241 253 265 262 260 267 261 244 241 236 265 260
336 353 352 352 350 354 71 48 14 353 290 280 313 310 266 332 326 300 304 269 301 307 287 279 291 301 302 270 290 298 277 267 289 273 258 264 259 259 255 248 248 255 262 273
329 352 351 1 359 32 69 312 325 276 271 304 341 274 343 322 325 293 243 301 304 302 290 304 294 285 279 250 271 235 248 258 277 267 267 285 262 261 244 253 245 233 234 244
316 345 345 350 2 30 142 181 63 294 284 277 273 302 302 300 297 279 288 290 285 263 306 303 288 242 236 249 231 217 257 250 252 290 337 314 305 13 359 341 254 236 243 252
292 319 332 343 348 338 119 184 127 265 284 241 294 312 302 291 288 279 271 283 263 305 305 321 330 350 210 272 54 193 262 221 285 288 249 277 257 3 341 343 294 352 278 191
259 296 317 326 332 320 357 177 214 285 309 252 303 305 287 300 319 297 262 308 308 299 296 327 336 332 321 327 326 142 4 82 253 323 301 278 20 339 326 310 225 0 320 299
252 283 302 312 322 314 315 215 206 210 276 269 228 286 308 283 286 271 298 335 323 340 325 299 327 313 333 329 314 338 313 359 278 288 274 291 5 332 311 319 356 1 29 28
245 270 289 301 306 307 321 254 192 184 258 277 247 229 197 278 235 263 323 330 123 313 338 341 337 319 334 291 309 335 324 330 338 319 318 322 351 329 13 316 356 19 32 46
245 265 277 296 302 303 318 266 203 185 237 264 234 258 253 242 246 285 278 259 316 281 337 344 315 331 320 306 315 347 325 8 310 299 312 306 316 347 29 351 41 35 44 34
248 263 276 288 291 292 298 247 253 221 272 288 318 243 254 221 225 213 230 238 238 220 151 303 295 293 302 325 354 292 312 31 270 305 349 332 350 12 20 28 53 49 45 38
243 254 267 281 284 284 283 243 248 200 277 289 283 290 289 251 220 188 207 239 321 1 23 267 285 287 12 329 318 325 328 309 315 289 307 321 11 9 28 55 52 47 44 44
244 251 266 273 288 292 291 250 228 217 245 294 289 313 267 289 272 240 211 223 243 199 230 229 290 282 315 12 308 345 344 332 347 336 322 318 350 23 26 50 47 45 48 47
245 255 274 283 286 296 333 318 156 195 183 278 297 284 286 297 293 283 151 196 183 203 237 344 94 55 346 24 316 311 322 305 267 318 335 351 25 38 44 60 56 52 49 46
243 259 271 273 271 239 219 197 210 175 188 266 288 293 273 287 288 5 355 26 324 207 247 8 70 21 39 3 329 327 328 341 328 291 318 34 41 50 54 69 68 67 62 59
245 265 274 277 270 273 266 245 226 190 298 268 278 274 324 248 308 339 348 360 3 15 2 37 21 54 354 12 325 342 333 334 36 55 58 72 75 62 56 63 71 72 60 61
252 271 273 292 182 217 230 320 121 148 221 276 277 277 272 346 299 316 346 65 299 301 60 26 68 19 27 289 314 4 8 26 74 67 70 77 73 72 64 59 57 71 68 63
274 192 175 240 216 309 112 249 131 184 204 224 252 262 264 72 293 295 303 333 278 62 35 87 54 3 241 268 135 120 47 52 80 93 78 75 75 76 65 69 71 74 80 79
111 186 203 248 313 93 193 197 216 163 228 210 235 216 252 273 198 265 187 277 356 39 281 96 78 330 325 33 121 128 95 57 61 55 49 52 88 95 97 91 83 80 76 75
173 159 92 359 80 186 200 202 196 220 242 215 205 240 203 272 221 177 292 300 357 224 136 76 75 262 328 84 59 114 160 124 94 77 111 105 91 97 96 88 84 78 82 82
136 114 133 151 189 167 207 208 230 220 200 231 276 305 238 319 224 118 235 314 288 355 56 77 224 277 84 122 154 173 188 127 85 95 97 98 90 96 109 102 90 90 84 83
136 157 200 214 188 218 198 195 202 232 178 257 184 264 237 277 289 174 197 219 144 102 74 94 227 221 141 136 143 173 183 209 111 106 105 107 108 104 98 100 111 112 102 91
158 152 215 210 227 250 241 220 258 244 175 74 337 297 144 284 276 214 257 114 302 207 200 182 199 172 142 137 141 144 142 139 128 122 115 113 112 109 100 103 104 106 106 103
166 211 244 230 123 274 334 234 254 229 113 88 75 299 318 273 222 255 233 117 228 245 195 178 145 166 162 158 152 153 142 135 134 130 127 127 129 130 123 109 115 116 124 126
205 233 198 181 202 214 227 204 239 172 83 137 97 285 235 303 286 256 181 185 243 257 158 149 163 161 175 157 148 148 143 140 139 129 131 128 120 122 122 130 148 137 138 135